{"data":{"norad_id":64920,"intl_designator":"2025-157S","name":"STARLINK-34069","alt_names":[],"object_type":"PAYLOAD","status":"ACTIVE","operator":null,"country":"US","launch_date":"2025-07-26","launch_site_code":"AFETR","launch_vehicle":null,"mission":null,"orbit_class":"UNKNOWN","rcs_meters":null,"size_class":null,"mass_kg":null,"dimensions":null,"purposes":["comms"],"wikipedia_slug":null,"has_3d_model":false,"image_url":null,"decayed_at":null,"tle_current":{"epoch":"2026-09-20T10:23:52.234944Z","epoch_age_seconds":130055,"freshness":"FRESH","line1":"1 64920U 25157S   26263.43324346  .00023981  00000+0  71874-3 0  9991","line2":"2 64920  53.1580 158.0041 0001276  93.7038 266.4110 15.34394432 65986","mean_motion":15.34394432,"eccentricity":0.0001276,"inclination_deg":53.158,"raan_deg":158.0041,"arg_perigee_deg":93.7038,"mean_anomaly_deg":266.411,"bstar":0.00071874,"rev_number":6598,"period_min":93.848098635436,"perigee_km":461.84689620021,"apogee_km":463.5926828529,"semimajor_km":6840.8567895266,"source":"CELESTRAK","updated_at":"2026-09-21T09:00:35.482947Z"}}}